STARLINK-33832

Satellite information

Favourite Embed

Satellite Type and Status

PAYLOADIN ORBIT

Key statistics

Satellite STARLINK-33832 at a glance.

Uptime

18

Days in orbit

Revolutions

≈ 15.7

Per day

Orbit

LEO

Low Earth Orbit

Inclination

43.0

Latest

Satellite identification and parameters

Extended collection of information and parameters for STARLINK-33832.

Object identification

Identified? True

Debris? False

Object name: STARLINK-33832

International designator: 2025-083D

Object number (NORAD): 63637

Object ID (CCSDS): 63637

Country: UNITED STATES OF AMERICA (US)

Current information (Y/N): Y

RCS size: LARGE

Orbital parameters

Period: 91.901 minutes

Inclination: 42.9987 deg

SMA: 6745.897 km

Apoapsis: 379.559 km

Periapsis: 355.964 km

RAAN: 269.2028 deg

Eccentricy: 0.0017488

Argument of periapsis: 117.3008 deg

Mean anomaly: 242.9641 deg

Mean motion: 15.66907044 rev/day

Mean motion (dot): -0.03179879 rev/day2

B* drag term: -0.033294 1/REarth

Two-line elements (TLE)

Creation date: May 12, 2025, 11:06 p.m.

Reference frame: TEME

Reference center: EARTH

Epoch: May 12, 2025, 6:45 p.m. UTC

TLE line 0: 0 STARLINK-33832

TLE line 1: 1 63637U 25083D 25132.78125692 -.03179879 00000-0 -33294-1 0 9994

TLE line 2: 2 63637 42.9987 269.2028 0017488 117.3008 242.9641 15.66907044 3994

Live tracking on map

Real-time ground track for satellite STARLINK-33832.

In-orbit conjunctions

There are no conjunctions computed for STARLINK-33832, at the moment. Check back to stay up to date, as we update our databases every day.

Go to all conjunctions

Associated space launch

A batch of 28 satellites for the Starlink mega-constellation - SpaceX's project for space-based Internet communication system.

STARLINK-33832 was lifted into orbit during the mission ‘Falcon 9 Block 5 | Starlink Group 6-74’, on board a Falcon 9 space rocket.

The launch took place on April 25, 2025, 1:52 a.m. from Space Launch Complex 40.

For more information about the launch, click the button.

Launch to space Falcon 9 Block 5 | Starlink Group 6-74
Falcon 9 Block 5 | Starlink Group 6-74

Agency: SpaceX

Status: Launch Successful

Launch date: April 25, 2025, 1:52 a.m. UTC

Rocket: Falcon 9

Launch pad: Space Launch Complex 40

Location: Cape Canaveral SFS, FL, USA

...

Latest news about this satellite

News about space launch
Live coverage: SpaceX to launch 28 Starlink satellites on Falcon 9 rocket from Cape Canaveral

The mission will be the 30th Starlink launch of the year for SpaceX. Liftoff from pad 40 at Cape Canaveral Space Force Station is targeted for Thursday, April 24, at 9:52 p.m. EDT (0152 UTC).

News about space launch
Launch Roundup: China to launch crew, Falcon 9 to launch Bandwagon rideshare

This week, China will launch three taikonauts to the Tiangong space station. SpaceX’s Falcon 9… The post Launch Roundup: China to launch crew, Falcon 9 to launch Bandwagon rideshare appeared first on NASASpaceFlight.com.

News about space launch
Weekly Pre Launch Preview: 4 Falcons, ISS Resupply, Recon Satellites, and G60 Constellation Launch

Weekly Pre Launch Preview: 4 Falcons, ISS Resupply, Recon Satellites, and G60 Constellation Launch


Newsletter sign-up

Weekly statistics, charts and insights to help you stay on top of the space industry.